Content
SEND FEEDBACK

Daily
Averages
Monthly
Summary
United States of America

ANN ARBOR, MICHIGAN


Home > North America > United States > Michigan
Elevation: 759 feet     Latitude: 42 17N     Longitude: 083 43W

WEATHER
 
SELECT A DAY
Number of Records: 208,871;   Date Range: 1/1/95 - 12/18/14
 
SHARE

PRINT THIS DATA

[ ← Previous Day ]
WEATHER ALMANAC - FEBRUARY 4, 2013
[ Next Day → ]
[ °C ]   °F
Weather ElementAverageHighLow
Temperature19.8 °F23 °F (3:21 pm)14 °F (6:00 am)
Dewpoint16 °F19 °F (8:53 pm)12 °F (1:53 am)
Humidity85.5 %93 % (6:00 am)78 % (4:53 pm)
Barometer29.94 in30.04 in (1:53 am)29.86 in (3:21 pm)
Wind Speed1.6 mph5.8 mph (1:11 pm)
Weather ElementAverage
Visibility4.1 mi
Wind DirectionENE (56.9 °)

Weather ElementTotal
Precipitation0.03 in
Heating Degree Days46.5 (Base 65)
Averaged from 39 records on February 4, 2013
WEATHER CONDITIONS BREAKOUT
WIND DIRECTION BREAKOUT
WEATHER BY HOUR - FEBRUARY 4, 2013
[ °C ]   °F
Local TimeTemperatureDewpointHumidityBarometerVisibilityWind DirectionWind SpeedGust SpeedPrecipitationEventsConditions
1:53 AM17.1 °F12.0 °F81 %30.04 in10.0 miWSW (240°)3.5 mph0.00 inOvercast
2:53 AM17.1 °F12.9 °F84 %30.04 in8.0 miSW (220°)3.5 mph0.00 inOvercast
3:53 AM17.1 °F12.9 °F84 %30.03 in8.0 miCalm0.00 inOvercast
4:12 AM17.6 °F12.2 °F79 %29.98 in9.0 miCalmOvercast
6:00 AM14.0 °F12.2 °F93 %29.96 in8.0 miCalmMostly Cloudy
6:22 AM15.8 °F12.2 °F86 %29.96 in7.0 miCalmOvercast
6:53 AM16.0 °F12.9 °F88 %30.00 in10.0 miCalmOvercast
7:47 AM17.6 °F14.0 °F86 %29.95 in2.5 miCalm0.00 inSnowLight Snow
7:53 AM17.1 °F14.0 °F88 %30.00 in2.0 miCalm0.00 inSnowLight Snow
8:00 AM17.6 °F14.0 °F86 %29.95 in2.0 miSE (140°)3.5 mph0.00 inSnowLight Snow
8:06 AM17.6 °F14.0 °F86 %29.95 in1.8 miSE (140°)3.5 mph0.00 inSnowLight Snow
8:46 AM17.6 °F14.0 °F86 %29.97 in1.0 miCalm0.00 inSnowLight Snow
8:53 AM17.1 °F15.1 °F92 %30.01 in1.0 miSouth (170°)3.5 mph0.00 inSnowLight Snow
9:53 AM18.0 °F15.1 °F88 %30.00 in1.2 miCalm0.00 inSnowLight Snow
10:53 AM19.0 °F16.0 °F88 %29.99 in1.0 miESE (120°)3.5 mph0.01 inSnowLight Snow
11:53 AM19.9 °F16.0 °F85 %29.98 in1.2 miESE (120°)4.6 mph0.00 inSnowLight Snow
12:43 PM21.2 °F17.6 °F86 %29.90 in1.8 miSSE (150°)4.6 mph0.01 inSnowLight Snow
12:53 PM21.0 °F17.1 °F85 %29.94 in1.0 miSSE (150°)4.6 mph0.01 inSnowLight Snow
1:11 PM21.2 °F15.8 °F80 %29.90 in1.5 miSSE (150°)5.8 mph0.00 inSnowLight Snow
1:22 PM21.2 °F17.6 °F86 %29.89 in1.0 miSSE (150°)3.5 mph0.00 inSnowLight Snow
1:53 PM21.0 °F17.1 °F85 %29.92 in1.8 miCalm0.00 inSnowLight Snow
2:09 PM21.2 °F17.6 °F86 %29.88 in1.8 miCalm0.00 inSnowLight Snow
2:18 PM21.2 °F17.6 °F86 %29.88 in2.5 miCalm0.00 inSnowLight Snow
2:53 PM21.9 °F17.1 °F82 %29.91 in2.5 miSSE (150°)3.5 mph0.00 inSnowLight Snow
3:21 PM23.0 °F17.6 °F80 %29.86 in3.0 miCalm0.00 inSnowLight Snow
3:37 PM21.2 °F17.6 °F86 %29.86 in4.0 miCalm0.00 inSnowLight Snow
3:53 PM21.9 °F17.1 °F82 %29.91 in5.0 miCalm0.00 inSnowLight Snow
4:07 PM21.2 °F17.6 °F86 %29.86 in6.0 miCalm0.00 inSnowLight Snow
4:53 PM23.0 °F17.1 °F78 %29.90 in5.0 miCalm0.00 inSnowLight Snow
5:53 PM21.9 °F18.0 °F85 %29.89 in5.0 miCalm0.00 inOvercast
6:12 PM21.2 °F17.6 °F86 %29.86 in6.0 miESE (110°)3.5 mphOvercast
6:53 PM21.9 °F18.0 °F85 %29.90 in6.0 miCalmOvercast
7:53 PM21.9 °F18.0 °F85 %29.92 in6.0 miCalmOvercast
8:17 PM21.2 °F17.6 °F86 %29.88 in5.0 miCalm0.00 inSnowLight Snow
8:53 PM21.9 °F19.0 °F89 %29.93 in5.0 miNE (40°)3.5 mph0.00 inOvercast
9:53 PM21.9 °F19.0 °F89 %29.94 in3.0 miCalm0.00 inSnowLight Snow
10:15 PM21.2 °F17.6 °F86 %29.89 in3.0 miEast (90°)4.6 mph0.00 inSnowLight Snow
10:53 PM21.0 °F17.1 °F85 %29.93 in4.0 miEast (80°)3.5 mph0.00 inSnowLight Snow
11:53 PM19.9 °F17.1 °F89 %29.95 in6.0 miCalm0.00 inOvercast
Hourly data recorded from KARB, located miles away from Ann Arbor, Michigan







STORIES FROM OUR PARTNERS